QPF
0.00 0.00 0.00 0.00 0.00 0.00 0.00 0.00 0.00 0.00 0.00 0.00 0.00 0.00 0.00 0.00 0.00 0.00 0.00 0.00 0.00 0.00 0.00 0.00 0.00 0.00 0.00 0.00 0.00 0.00 0.00 0.00 0.00 0.00 0.00 0.00 0.00 0.00 0.00 0.00 0.00 0.00 0.00 0.00 0.00 0.00 0.00
0.00 0.00 0.00 0.00 0.00 0.00 0.00 0.00 0.00 0.00 0.00 0.00 0.00 0.00 0.00 0.00 0.00 0.00 0.00 0.00 0.00 0.00 0.00 0.00 0.00 0.00 0.00 0.00 0.00 0.00 0.00 0.00 0.00 0.00 0.00 0.00 0.00 0.00 0.00 0.00 0.00 0.00 0.00 0.00 0.00 0.00 0.00
0.00 0.00 0.00 0.00 0.00 0.00 0.00 0.00 0.00 0.00 0.00 0.00 0.00 0.00 0.00 0.00 0.00 0.00 0.00 0.00 0.00 0.00 0.00 0.00 0.00 0.00 0.00 0.00 0.00 0.00 0.00 0.00 0.00 0.00 0.00 0.00 0.00 0.00 0.00 0.00 0.00 0.00 0.00 0.00 0.00 0.00 0.00
0.00 0.00 0.00 0.01 0.00 0.00 0.00 0.00 0.00 0.00 0.00 0.00 0.00 0.00 0.00 0.00 0.00 0.00 0.00 0.00 0.00 0.00 0.00 0.00 0.00 0.00 0.00 0.00 0.00 0.00 0.00 0.00 0.00 0.00 0.00 0.00 0.00 0.00 0.00 0.00 0.00 0.00 0.00 0.00 0.00 0.00 0.00
0.00 0.00 0.00 0.00 0.00 0.00 0.00 0.00 0.00 0.00 0.00 0.00 0.00 0.00 0.00 0.00 0.00 0.00 0.00 0.00 0.00 0.00 0.00 0.00 0.00 0.00 0.00 0.00 0.00 0.00 0.00 0.00 0.00 0.00 0.00 0.00 0.00 0.00 0.00 0.00 0.00 0.00 0.00 0.00 0.00 0.00 0.00
0.00 0.00 0.01 0.00 0.00 0.00 0.00 0.00 0.00 0.00 0.00 0.00 0.00 0.00 0.00 0.00 0.00 0.00 0.00 0.00 0.00 0.00 0.00 0.00 0.00 0.00 0.00 0.00 0.00 0.00 0.00 0.00 0.00 0.00 0.00 0.00 0.00 0.00 0.00 0.00 0.00 0.00 0.00 0.00 0.00 0.00 0.00
0.00 0.00 0.00 0.01 0.00 0.00 0.00 0.00 0.00 0.00 0.00 0.00 0.00 0.00 0.00 0.00 0.00 0.00 0.00 0.00 0.00 0.00 0.00 0.00 0.00 0.00 0.00 0.00 0.00 0.00 0.00 0.00 0.00 0.00 0.00 0.00 0.00 0.00 0.00 0.00 0.00 0.00 0.00 0.00 0.00 0.00 0.00
0.00 0.00 0.00 0.01 0.00 0.00 0.00 0.00 0.00 0.00 0.00 0.00 0.00 0.00 0.00 0.00 0.00 0.00 0.00 0.00 0.00 0.00 0.00 0.00 0.00 0.00 0.00 0.00 0.00 0.00 0.00 0.00 0.00 0.00 0.00 0.00 0.00 0.00 0.00 0.00 0.00 0.00 0.00 0.00 0.00 0.00 0.00
0.00 0.00 0.00 0.01 0.00 0.00 0.00 0.00 0.00 0.00 0.00 0.00 0.00 0.00 0.00 0.00 0.00 0.00 0.00 0.00 0.00 0.00 0.00 0.00 0.00 0.00 0.00 0.00 0.00 0.00 0.00 0.00 0.00 0.00 0.00 0.00 0.00 0.00 0.00 0.00 0.00 0.00 0.00 0.00 0.00 0.00 0.00
0.00 0.00 0.00 0.01 0.00 0.00 0.00 0.00 0.00 0.00 0.00 0.00 0.00 0.00 0.00 0.00 0.00 0.00 0.00 0.00 0.00 0.00 0.00 0.00 0.00 0.00 0.00 0.00 0.00 0.00 0.00 0.00 0.00 0.00 0.00 0.00 0.00 0.00 0.00 0.00 0.00 0.00 0.00 0.00 0.00 0.00 0.00
0.00 0.00 0.00 0.00 0.00 0.00 0.00 0.00 0.00 0.00 0.00 0.00 0.00 0.00 0.00 0.00 0.00 0.00 0.00 0.00 0.00 0.00 0.00 0.00 0.00 0.00 0.00 0.00 0.00 0.00 0.00 0.00 0.00 0.00 0.00 0.00 0.00 0.00 0.00 0.00 0.00 0.00 0.00 0.00 0.00 0.00 0.00
0.00 0.00 0.00 0.00 0.00 0.00 0.00 0.00 0.00 0.00 0.00 0.00 0.00 0.00 0.00 0.00 0.00 0.00 0.00 0.00 0.00 0.00 0.00 0.00 0.00 0.00 0.00 0.00 0.00 0.00 0.00 0.00 0.00 0.00 0.00 0.00 0.00 0.00 0.00 0.00 0.00 0.00 0.00 0.00 0.00 0.00 0.02
0.02 0.01 0.01 0.00 0.00 0.00 0.00 0.00 0.00 0.00 0.00 0.00 0.00 0.00 0.00 0.00 0.00 0.00 0.00 0.00 0.00 0.00 0.00 0.00 0.00 0.00 0.00 0.00 0.00 0.00 0.00 0.00 0.00 0.00 0.00 0.00 0.00 0.00 0.00 0.00 0.00 0.00 0.00 0.00 0.01 0.03 0.03
0.02 0.02 0.01 0.01 0.00 0.00 0.00 0.00 0.00 0.00 0.00 0.00 0.00 0.00 0.00 0.00 0.00 0.00 0.00 0.00 0.00 0.00 0.00 0.00 0.00 0.00 0.00 0.00 0.00 0.00 0.00 0.00 0.00 0.00 0.00 0.00 0.00 0.00 0.00 0.00 0.00 0.00 0.00 0.01 0.01 0.01 0.03
0.01 0.02 0.02 0.02 0.01 0.01 0.00 0.00 0.00 0.00 0.00 0.00 0.00 0.00 0.00 0.00 0.00 0.00 0.00 0.00 0.00 0.00 0.00 0.00 0.00 0.00 0.00 0.00 0.00 0.00 0.00 0.00 0.00 0.00 0.00 0.00 0.00 0.00 0.00 0.00 0.00 0.00 0.00 0.00 0.00 0.01 0.04
0.00 0.01 0.01 0.02 0.02 0.02 0.01 0.00 0.00 0.00 0.00 0.00 0.00 0.00 0.00 0.00 0.00 0.00 0.00 0.00 0.00 0.00 0.00 0.00 0.00 0.00 0.00 0.00 0.00 0.00 0.00 0.00 0.00 0.00 0.00 0.00 0.00 0.00 0.00 0.00 0.00 0.00 0.00 0.00 0.01 0.02 0.05
0.00 0.00 0.00 0.00 0.02 0.02 0.02 0.01 0.00 0.00 0.00 0.00 0.00 0.00 0.00 0.00 0.00 0.00 0.00 0.00 0.00 0.00 0.00 0.00 0.00 0.00 0.00 0.00 0.00 0.00 0.00 0.00 0.00 0.00 0.00 0.00 0.00 0.00 0.00 0.00 0.00 0.00 0.00 0.00 0.01 0.01 0.02
0.00 0.00 0.00 0.00 0.00 0.02 0.02 0.01 0.00 0.00 0.00 0.00 0.00 0.00 0.00 0.00 0.00 0.00 0.00 0.00 0.00 0.00 0.00 0.00 0.00 0.00 0.00 0.00 0.00 0.00 0.00 0.00 0.00 0.00 0.00 0.00 0.00 0.00 0.00 0.00 0.00 0.00 0.00 0.00 0.01 0.01 0.01
0.00 0.00 0.00 0.00 0.00 0.01 0.02 0.02 0.00 0.01 0.00 0.00 0.00 0.00 0.00 0.00 0.00 0.00 0.00 0.00 0.00 0.00 0.00 0.00 0.00 0.00 0.00 0.00 0.00 0.00 0.00 0.00 0.00 0.00 0.00 0.00 0.00 0.00 0.00 0.00 0.00 0.00 0.00 0.00 0.00 0.00 0.00
0.01 0.00 0.00 0.00 0.00 0.00 0.00 0.01 0.01 0.01 0.00 0.00 0.00 0.01 0.00 0.00 0.00 0.00 0.00 0.00 0.00 0.00 0.00 0.00 0.00 0.00 0.00 0.00 0.00 0.00 0.00 0.00 0.00 0.00 0.00 0.00 0.00 0.00 0.00 0.00 0.00 0.00 0.00 0.00 0.00 0.00 0.00
0.01 0.01 0.00 0.00 0.00 0.00 0.00 0.01 0.01 0.00 0.00 0.01 0.01 0.00 0.00 0.00 0.00 0.00 0.00 0.00 0.00 0.00 0.00 0.00 0.00 0.00 0.00 0.00 0.00 0.00 0.00 0.00 0.00 0.00 0.00 0.00 0.00 0.00 0.00 0.00 0.00 0.00 0.00 0.00 0.00 0.00 0.00
0.01 0.01 0.01 0.00 0.00 0.00 0.00 0.00 0.01 0.00 0.01 0.01 0.01 0.00 0.00 0.00 0.00 0.00 0.00 0.00 0.00 0.00 0.00 0.00 0.00 0.00 0.00 0.00 0.00 0.00 0.00 0.00 0.00 0.00 0.00 0.00 0.00 0.00 0.00 0.00 0.00 0.00 0.00 0.00 0.00 0.00 0.00
0.00 0.01 0.00 0.00 0.00 0.00 0.00 0.00 0.00 0.01 0.01 0.01 0.01 0.00 0.00 0.00 0.00 0.00 0.00 0.00 0.00 0.00 0.00 0.00 0.00 0.00 0.00 0.00 0.00 0.00 0.00 0.00 0.00 0.00 0.00 0.00 0.00 0.00 0.00 0.00 0.00 0.00 0.00 0.00 0.00 0.00 0.00
0.00 0.00 0.00 0.00 0.00 0.00 0.00 0.00 0.01 0.01 0.01 0.01 0.00 0.00 0.00 0.01 0.00 0.00 0.00 0.00 0.00 0.00 0.00 0.00 0.00 0.00 0.00 0.00 0.00 0.00 0.00 0.00 0.00 0.00 0.00 0.00 0.00 0.00 0.00 0.00 0.00 0.00 0.00 0.00 0.00 0.00 0.00
0.00 0.00 0.00 0.00 0.00 0.00 0.00 0.00 0.01 0.01 0.02 0.02 0.00 0.00 0.00 0.01 0.00 0.00 0.00 0.00 0.00 0.00 0.00 0.00 0.00 0.00 0.00 0.00 0.00 0.00 0.00 0.00 0.00 0.00 0.00 0.00 0.00 0.00 0.00 0.00 0.00 0.00 0.00 0.00 0.00 0.00 0.00
0.00 0.00 0.00 0.00 0.00 0.00 0.00 0.00 0.01 0.01 0.01 0.02 0.01 0.01 0.00 0.01 0.00 0.00 0.00 0.00 0.00 0.00 0.00 0.00 0.00 0.00 0.00 0.00 0.00 0.00 0.00 0.00 0.00 0.00 0.00 0.00 0.00 0.00 0.00 0.00 0.00 0.00 0.00 0.00 0.00 0.00 0.00
0.00 0.00 0.00 0.00 0.00 0.00 0.00 0.00 0.01 0.01 0.01 0.01 0.01 0.01 0.01 0.02 0.00 0.00 0.00 0.00 0.00 0.00 0.00 0.00 0.00 0.00 0.00 0.00 0.00 0.00 0.00 0.00 0.00 0.00 0.00 0.00 0.00 0.00 0.00 0.00 0.00 0.00 0.00 0.00 0.00 0.00 0.00
0.01 0.00 0.00 0.00 0.00 0.00 0.00 0.00 0.01 0.01 0.02 0.01 0.00 0.01 0.02 0.03 0.00 0.00 0.00 0.00 0.00 0.00 0.00 0.00 0.00 0.00 0.00 0.00 0.00 0.00 0.00 0.00 0.00 0.00 0.00 0.00 0.00 0.00 0.00 0.00 0.00 0.00 0.00 0.00 0.00 0.00 0.00
0.00 0.00 0.00 0.01 0.01 0.01 0.00 0.00 0.01 0.02 0.02 0.02 0.00 0.01 0.02 0.02 0.00 0.00 0.00 0.00 0.00 0.00 0.00 0.00 0.00 0.00 0.00 0.00 0.00 0.00 0.00 0.00 0.00 0.00 0.00 0.00 0.00 0.00 0.00 0.00 0.00 0.00 0.00 0.00 0.00 0.00 0.00
MSLP
1024.14 1024.33 1024.42 1024.47 1024.51 1024.41 1024.23 1024.17 1023.94 1023.72 1023.57 1023.32 1023.19 1022.84 1022.47 1022.25 1021.95 1021.71 1021.37 1020.97 1020.62 1020.18 1019.66 1019.27 1018.59 1017.95 1017.60 1015.93 1016.22 1016.10 1016.20 1015.39 1014.57 1013.94 1013.03 1012.11 1011.39 1010.38 1009.56 1009.95 1010.27 1009.78 1009.09 1009.82 1010.59 1010.73 1010.71
1024.23 1024.33 1024.42 1024.46 1024.44 1024.43 1024.29 1024.17 1024.03 1023.78 1023.53 1023.31 1023.16 1022.92 1022.60 1022.37 1022.03 1021.66 1021.20 1020.77 1020.33 1019.86 1019.54 1019.06 1018.22 1017.92 1016.55 1016.32 1016.70 1016.09 1015.60 1015.45 1014.78 1013.95 1013.62 1013.07 1012.56 1012.31 1011.57 1011.43 1011.01 1011.33 1011.17 1010.90 1010.77 1010.63 1010.54
1024.27 1024.30 1024.31 1024.33 1024.41 1024.34 1024.27 1024.18 1024.00 1023.79 1023.52 1023.30 1023.19 1022.94 1022.72 1022.45 1022.05 1021.59 1021.04 1020.56 1020.16 1019.86 1019.52 1018.88 1018.10 1016.57 1016.47 1016.77 1016.25 1015.90 1015.32 1015.22 1015.11 1014.50 1013.76 1013.96 1013.57 1012.43 1012.55 1011.84 1012.44 1011.97 1011.37 1010.42 1010.26 1010.91 1011.30
1024.13 1024.22 1024.21 1024.17 1024.24 1024.28 1024.23 1024.11 1023.95 1023.80 1023.55 1023.30 1023.23 1023.05 1022.78 1022.47 1022.04 1021.56 1021.06 1020.56 1020.17 1019.85 1019.52 1018.89 1018.18 1016.48 1016.52 1016.77 1016.04 1015.59 1015.34 1014.91 1014.98 1014.79 1014.61 1014.57 1014.10 1013.49 1012.86 1012.92 1012.08 1011.36 1011.04 1009.91 1010.25 1010.59 1011.39
1024.00 1024.07 1024.08 1024.09 1024.00 1024.07 1024.17 1024.05 1023.95 1023.76 1023.58 1023.31 1023.25 1023.09 1022.81 1022.43 1022.03 1021.67 1021.16 1020.68 1020.18 1019.78 1019.35 1018.68 1017.84 1016.05 1016.22 1016.73 1016.21 1015.71 1015.80 1015.20 1015.06 1015.12 1015.16 1015.06 1013.70 1012.75 1012.12 1011.21 1010.63 1010.49 1010.92 1010.96 1010.81 1010.77 1010.90
1023.72 1023.81 1023.88 1023.85 1023.87 1023.90 1024.06 1023.95 1023.85 1023.74 1023.57 1023.39 1023.31 1023.10 1022.82 1022.47 1022.07 1021.62 1021.08 1020.69 1020.05 1019.74 1018.93 1017.56 1017.07 1016.43 1016.56 1016.45 1016.34 1015.80 1015.85 1015.58 1015.05 1014.72 1014.17 1013.87 1012.61 1012.05 1012.39 1011.89 1011.84 1012.47 1012.04 1011.53 1010.94 1011.20 1011.30
1023.55 1023.65 1023.74 1023.71 1023.65 1023.72 1023.83 1023.82 1023.83 1023.70 1023.52 1023.38 1023.25 1023.11 1022.85 1022.50 1022.03 1021.54 1020.75 1020.02 1019.56 1018.51 1017.50 1016.80 1016.53 1016.13 1016.52 1016.71 1016.23 1015.76 1015.52 1015.00 1014.26 1013.72 1013.24 1013.37 1012.52 1013.39 1014.08 1014.24 1014.26 1013.58 1012.78 1011.90 1011.37 1011.68 1011.86
1023.26 1023.36 1023.50 1023.56 1023.56 1023.60 1023.67 1023.69 1023.75 1023.67 1023.52 1023.28 1023.05 1022.98 1022.83 1022.48 1022.01 1021.36 1020.76 1018.58 1019.14 1019.07 1018.01 1017.60 1017.25 1016.86 1017.04 1016.92 1015.84 1015.78 1015.41 1014.91 1013.99 1013.51 1013.85 1013.09 1013.99 1015.09 1015.09 1014.62 1014.21 1013.54 1012.94 1012.19 1012.16 1012.10 1012.53
1022.98 1023.11 1023.23 1023.29 1023.38 1023.45 1023.47 1023.55 1023.67 1023.62 1023.48 1023.22 1022.93 1022.72 1022.72 1022.44 1021.99 1020.91 1019.48 1019.44 1019.53 1019.13 1017.66 1017.61 1017.08 1016.65 1016.92 1016.77 1016.33 1016.15 1015.98 1015.43 1014.68 1014.07 1013.74 1013.72 1015.46 1015.65 1015.11 1014.56 1014.61 1013.86 1013.80 1013.57 1013.26 1012.95 1012.01
1022.59 1022.75 1022.91 1022.99 1023.03 1023.17 1023.27 1023.40 1023.54 1023.51 1023.41 1023.18 1022.86 1022.60 1022.49 1022.21 1022.26 1020.27 1019.65 1019.97 1019.84 1019.85 1017.58 1017.15 1016.89 1016.72 1016.94 1016.76 1016.40 1016.70 1016.48 1016.09 1015.32 1015.02 1014.83 1015.20 1015.82 1015.63 1015.16 1015.09 1015.40 1014.23 1014.68 1014.33 1013.56 1013.00 1011.85
1022.28 1022.22 1022.37 1022.64 1022.78 1022.90 1023.02 1023.23 1023.32 1023.41 1023.33 1023.18 1022.92 1022.62 1022.33 1022.29 1020.91 1019.79 1020.30 1020.20 1020.13 1019.78 1017.99 1016.61 1016.42 1016.73 1016.84 1016.41 1016.56 1016.22 1016.66 1015.75 1015.37 1015.60 1015.53 1015.77 1015.77 1015.76 1015.58 1015.84 1015.63 1015.04 1014.91 1014.15 1013.67 1012.76 1012.56
1021.86 1021.97 1022.10 1022.16 1022.38 1022.52 1022.77 1022.93 1023.16 1023.21 1023.26 1023.12 1023.02 1022.72 1022.14 1021.45 1020.74 1020.56 1020.51 1020.45 1020.19 1019.10 1017.09 1016.33 1016.06 1016.17 1016.22 1016.42 1016.50 1016.42 1016.28 1016.48 1016.43 1015.66 1015.49 1015.99 1016.37 1016.32 1016.35 1015.77 1015.91 1015.52 1014.08 1012.78 1012.49 1012.51 1012.95
1021.75 1021.70 1021.73 1021.81 1021.97 1022.19 1022.29 1022.53 1022.84 1022.96 1023.07 1023.06 1022.99 1022.80 1022.23 1021.03 1020.20 1020.80 1020.68 1020.07 1019.22 1017.99 1016.34 1015.72 1015.43 1015.81 1015.53 1016.03 1016.45 1016.37 1015.88 1015.79 1015.48 1015.02 1014.95 1015.70 1015.91 1016.40 1016.68 1015.89 1015.34 1014.98 1014.20 1012.47 1012.72 1013.13 1013.41
1021.73 1021.50 1021.39 1021.44 1021.59 1021.69 1022.00 1022.17 1022.49 1022.68 1022.89 1022.94 1022.93 1022.84 1021.92 1020.89 1020.71 1020.95 1020.50 1019.49 1018.56 1016.41 1015.25 1014.88 1014.89 1015.35 1015.30 1015.94 1016.33 1016.47 1016.27 1015.81 1016.44 1015.83 1015.25 1015.34 1015.86 1016.60 1017.11 1016.82 1016.48 1015.96 1016.01 1015.40 1014.84 1013.89 1014.18
1021.56 1021.49 1021.13 1020.95 1021.09 1021.30 1021.50 1021.77 1022.13 1022.32 1022.65 1022.80 1022.93 1022.05 1021.32 1020.91 1021.19 1020.96 1019.88 1019.11 1017.22 1015.57 1014.54 1014.72 1014.98 1014.98 1015.26 1015.89 1016.05 1016.28 1016.47 1016.68 1017.43 1017.38 1016.59 1016.55 1016.71 1017.38 1017.50 1017.38 1017.25 1016.78 1016.59 1017.13 1016.97 1015.37 1016.11
1021.18 1021.25 1021.11 1020.83 1020.58 1020.75 1021.12 1021.39 1021.73 1021.85 1022.45 1022.71 1021.76 1021.21 1020.27 1020.96 1021.25 1020.65 1019.37 1018.75 1016.72 1015.77 1014.69 1014.44 1013.78 1014.06 1014.13 1015.16 1015.84 1015.94 1016.63 1017.71 1018.00 1018.47 1018.40 1017.95 1017.23 1017.35 1017.64 1017.64 1017.35 1017.70 1018.06 1017.77 1017.84 1017.22 1016.60
1020.60 1020.77 1020.83 1020.79 1020.63 1020.34 1020.55 1021.02 1021.33 1021.62 1022.02 1022.61 1021.50 1020.50 1020.67 1021.06 1021.34 1020.17 1019.08 1018.16 1016.65 1016.06 1015.21 1014.56 1013.95 1014.16 1013.74 1014.65 1015.31 1015.87 1016.61 1018.07 1018.73 1018.69 1018.89 1018.62 1018.23 1017.57 1017.71 1017.67 1017.88 1017.80 1018.22 1019.09 1019.55 1018.79 1018.29
1020.23 1020.15 1020.26 1020.41 1020.44 1020.34 1020.05 1020.40 1020.95 1021.32 1021.63 1022.47 1020.71 1020.23 1020.47 1020.84 1020.58 1019.48 1018.77 1017.43 1016.60 1015.78 1015.81 1015.35 1014.89 1014.41 1014.31 1014.95 1015.45 1016.06 1016.84 1017.64 1019.06 1019.30 1019.00 1019.40 1018.75 1017.78 1017.79 1018.19 1018.64 1018.72 1018.76 1019.06 1019.48 1019.56 1019.13
1019.75 1019.74 1019.72 1019.77 1019.94 1020.12 1019.89 1019.93 1020.25 1020.87 1021.13 1020.70 1019.94 1019.77 1020.54 1020.46 1019.33 1019.09 1018.58 1017.44 1016.76 1015.59 1015.49 1015.48 1015.05 1014.98 1014.90 1015.24 1016.01 1016.34 1017.23 1018.86 1019.66 1019.64 1019.76 1019.87 1019.40 1018.24 1018.12 1018.39 1018.50 1018.30 1018.68 1018.90 1019.35 1019.60 1019.02
1019.30 1019.22 1019.29 1019.33 1019.22 1019.34 1019.72 1019.68 1019.58 1020.16 1020.53 1020.75 1019.54 1019.75 1020.19 1020.34 1018.66 1018.07 1017.89 1017.04 1016.54 1015.68 1015.17 1015.23 1015.10 1015.38 1015.57 1015.60 1016.45 1016.66 1017.51 1019.21 1019.90 1020.06 1021.02 1020.97 1019.52 1018.73 1017.93 1018.02 1018.34 1018.07 1018.12 1018.24 1018.56 1018.32 1017.56
1018.77 1018.74 1018.71 1018.82 1018.93 1018.83 1019.08 1019.26 1019.02 1019.46 1019.97 1020.55 1019.19 1018.27 1018.05 1018.44 1018.22 1017.40 1017.04 1016.26 1015.74 1015.53 1015.53 1015.24 1015.22 1015.25 1015.24 1016.00 1016.37 1016.68 1017.31 1018.86 1019.94 1020.68 1021.00 1020.63 1020.01 1019.46 1019.10 1018.88 1018.67 1018.23 1017.87 1017.57 1017.27 1017.37 1017.04
1017.94 1018.15 1018.23 1018.25 1018.33 1018.38 1018.45 1018.82 1019.12 1018.81 1019.31 1019.46 1018.81 1017.62 1016.62 1016.22 1017.03 1016.94 1016.17 1015.63 1015.03 1014.85 1015.04 1014.69 1014.70 1014.97 1015.04 1015.60 1016.12 1016.36 1016.88 1018.11 1018.71 1019.87 1020.36 1020.59 1020.37 1020.11 1020.13 1019.27 1018.84 1018.06 1017.41 1017.03 1016.81 1016.64 1016.58
1016.98 1017.23 1017.48 1017.57 1017.67 1017.78 1017.85 1017.99 1018.19 1018.34 1018.45 1018.23 1017.88 1017.20 1016.64 1015.73 1015.32 1015.74 1014.94 1015.04 1014.54 1014.27 1014.66 1014.51 1014.66 1014.58 1014.95 1015.36 1016.09 1016.40 1017.04 1017.81 1018.41 1019.20 1019.72 1020.45 1020.78 1020.78 1020.03 1019.45 1018.79 1017.72 1016.48 1016.22 1016.09 1016.17 1016.05
1015.97 1016.21 1016.50 1016.71 1016.85 1016.98 1017.11 1017.11 1017.37 1017.83 1017.51 1017.23 1017.36 1017.18 1016.30 1015.21 1014.29 1014.04 1014.12 1014.47 1014.21 1013.87 1014.39 1014.58 1014.51 1014.58 1015.19 1016.11 1017.51 1018.01 1018.62 1018.93 1019.22 1019.35 1019.58 1020.09 1020.61 1020.97 1020.61 1019.89 1018.53 1015.95 1015.52 1015.51 1015.62 1015.87 1016.08
1014.84 1015.15 1015.45 1015.69 1015.96 1016.17 1016.36 1016.56 1016.80 1017.29 1018.01 1018.08 1016.66 1016.05 1015.38 1015.05 1014.02 1013.56 1013.59 1013.80 1014.07 1013.95 1014.21 1014.45 1014.94 1014.81 1015.91 1016.87 1018.34 1019.69 1020.32 1020.55 1020.28 1019.87 1019.92 1020.16 1020.41 1021.26 1021.01 1019.52 1017.14 1015.63 1015.55 1015.49 1015.67 1015.67 1016.03
1013.49 1013.86 1014.30 1014.63 1014.95 1015.25 1015.57 1015.91 1016.09 1016.40 1017.00 1017.63 1016.41 1015.66 1015.04 1015.10 1013.50 1013.25 1013.13 1013.16 1013.06 1013.56 1014.24 1014.74 1015.67 1016.00 1016.41 1016.97 1018.04 1018.42 1018.47 1018.60 1019.61 1019.56 1019.60 1020.06 1020.33 1020.78 1020.89 1019.32 1016.63 1014.81 1014.74 1015.50 1015.83 1015.42 1015.35
1012.06 1012.39 1012.91 1013.42 1013.83 1014.11 1014.61 1014.93 1015.30 1015.66 1016.38 1017.12 1016.66 1016.29 1015.26 1014.35 1013.81 1012.86 1012.22 1012.36 1012.61 1013.01 1013.76 1015.05 1015.87 1016.32 1016.40 1016.82 1017.76 1017.56 1016.66 1016.69 1017.40 1017.91 1018.86 1019.38 1020.18 1020.22 1019.94 1018.61 1016.03 1014.53 1015.02 1015.72 1015.96 1015.16 1015.19
1010.26 1011.00 1011.47 1012.14 1012.67 1013.10 1013.49 1014.00 1014.44 1014.94 1015.59 1016.22 1016.56 1015.91 1014.47 1013.96 1013.53 1013.28 1012.39 1012.04 1012.06 1012.02 1012.73 1014.24 1016.05 1016.16 1016.48 1016.68 1016.68 1016.59 1015.97 1015.81 1015.52 1015.68 1016.84 1017.57 1018.70 1018.83 1018.98 1017.83 1015.72 1014.16 1015.23 1015.38 1014.87 1015.62 1016.17
1008.48 1009.53 1009.99 1010.85 1011.53 1012.03 1012.54 1013.05 1013.48 1013.99 1014.57 1015.60 1015.96 1015.69 1014.69 1014.19 1013.45 1012.93 1012.77 1012.34 1012.49 1011.83 1012.12 1013.51 1013.23 1014.00 1014.73 1015.32 1015.32 1015.23 1015.33 1014.87 1014.60 1014.47 1015.30 1015.92 1015.66 1015.78 1016.06 1015.12 1014.46 1014.18 1014.42 1015.02 1015.37 1015.75 1016.41
Thickness
5542 5538 5537 5536 5536 5537 5539 5539 5541 5543 5544 5547 5548 5551 5554 5554 5556 5557 5560 5562 5564 5567 5569 5572 5578 5584 5588 5598 5591 5602 5605 5615 5625 5634 5641 5648 5653 5664 5668 5667 5666 5667 5680 5679 5674 5672 5677
5537 5535 5534 5533 5534 5535 5536 5538 5539 5541 5543 5544 5546 5547 5550 5551 5553 5557 5560 5563 5566 5570 5572 5575 5582 5585 5597 5585 5593 5601 5609 5612 5620 5628 5630 5638 5641 5645 5646 5646 5652 5653 5653 5658 5664 5666 5670
5533 5532 5531 5531 5530 5532 5534 5535 5537 5538 5540 5542 5543 5545 5546 5548 5551 5555 5560 5564 5567 5570 5573 5577 5583 5595 5591 5586 5598 5603 5611 5613 5617 5623 5628 5631 5635 5643 5639 5641 5640 5643 5641 5657 5659 5655 5650
5529 5528 5527 5528 5528 5528 5530 5532 5534 5535 5537 5539 5540 5541 5544 5546 5549 5553 5558 5563 5566 5569 5572 5578 5584 5597 5586 5595 5602 5606 5610 5614 5618 5622 5623 5625 5631 5631 5634 5634 5639 5640 5644 5645 5651 5651 5644
5525 5524 5524 5524 5526 5526 5526 5528 5530 5532 5534 5536 5537 5539 5541 5544 5547 5550 5554 5559 5564 5568 5572 5578 5586 5597 5588 5596 5597 5604 5605 5608 5612 5613 5615 5618 5629 5632 5640 5641 5643 5646 5624 5623 5629 5641 5636
5521 5521 5520 5521 5521 5523 5522 5524 5526 5527 5530 5532 5533 5535 5538 5541 5544 5548 5553 5557 5562 5567 5574 5583 5589 5589 5591 5589 5596 5603 5605 5606 5607 5611 5616 5619 5631 5632 5627 5628 5612 5602 5606 5613 5615 5621 5618
5515 5515 5515 5516 5517 5518 5518 5520 5521 5523 5525 5528 5530 5532 5535 5538 5542 5546 5552 5560 5566 5571 5580 5583 5586 5590 5588 5592 5600 5600 5606 5608 5615 5617 5613 5617 5618 5600 5596 5597 5595 5597 5598 5600 5610 5606 5595
5508 5509 5509 5510 5511 5513 5513 5515 5517 5519 5521 5523 5526 5529 5531 5535 5540 5546 5549 5568 5561 5565 5568 5576 5579 5584 5586 5589 5592 5596 5606 5602 5609 5606 5607 5615 5592 5588 5589 5593 5592 5594 5590 5591 5589 5586 5573
5502 5503 5503 5505 5506 5506 5508 5509 5511 5514 5516 5519 5523 5525 5528 5532 5538 5546 5559 5558 5556 5560 5572 5570 5579 5582 5581 5587 5584 5587 5594 5595 5597 5599 5603 5598 5581 5584 5586 5588 5578 5583 5571 5562 5555 5556 5567
5496 5497 5497 5498 5500 5501 5502 5503 5504 5508 5511 5514 5518 5522 5524 5530 5534 5549 5553 5550 5551 5552 5573 5571 5573 5578 5579 5582 5581 5586 5588 5588 5590 5587 5589 5583 5580 5577 5580 5573 5565 5566 5558 5548 5545 5539 5540
5488 5491 5492 5491 5492 5494 5496 5496 5498 5500 5504 5508 5513 5517 5521 5523 5537 5547 5544 5544 5547 5550 5548 5576 5574 5580 5577 5579 5579 5583 5585 5588 5584 5578 5581 5571 5572 5571 5567 5559 5559 5554 5549 5546 5544 5545 5542
5480 5481 5483 5485 5486 5488 5488 5490 5491 5494 5497 5501 5506 5510 5517 5524 5529 5534 5537 5539 5543 5547 5552 5568 5575 5573 5574 5575 5575 5578 5580 5580 5578 5579 5581 5571 5570 5566 5559 5562 5552 5549 5554 5561 5561 5556 5531
5469 5471 5474 5476 5478 5480 5483 5483 5484 5487 5490 5493 5498 5503 5510 5519 5531 5525 5529 5538 5542 5537 5573 5570 5572 5573 5579 5572 5569 5572 5577 5577 5580 5581 5579 5572 5567 5563 5556 5554 5558 5552 5547 5555 5546 5537 5538
5456 5461 5465 5468 5470 5473 5474 5476 5477 5480 5482 5485 5490 5495 5505 5513 5517 5518 5526 5536 5521 5557 5570 5580 5578 5574 5573 5571 5568 5567 5568 5574 5569 5575 5577 5570 5562 5555 5550 5543 5536 5537 5529 5526 5520 5542 5546
5443 5448 5454 5459 5462 5464 5466 5468 5469 5472 5474 5477 5480 5491 5500 5507 5507 5512 5526 5522 5536 5563 5578 5570 5570 5566 5566 5565 5568 5567 5565 5563 5555 5557 5564 5559 5553 5549 5544 5542 5537 5528 5524 5524 5513 5541 5521
5431 5435 5440 5447 5453 5456 5458 5460 5462 5465 5465 5467 5481 5489 5501 5498 5499 5508 5521 5509 5548 5559 5570 5571 5571 5576 5573 5567 5563 5567 5561 5552 5548 5546 5546 5545 5548 5548 5541 5540 5539 5525 5521 5515 5517 5511 5519
5418 5423 5428 5433 5440 5446 5449 5451 5452 5455 5457 5457 5472 5487 5489 5488 5490 5507 5504 5520 5543 5550 5560 5563 5570 5566 5578 5568 5567 5563 5560 5547 5541 5543 5541 5541 5540 5545 5540 5531 5521 5523 5514 5502 5496 5508 5507
5404 5410 5416 5420 5425 5432 5439 5442 5442 5445 5448 5447 5470 5468 5479 5479 5488 5504 5505 5531 5539 5546 5547 5551 5558 5564 5567 5564 5560 5558 5552 5552 5539 5537 5538 5532 5537 5539 5536 5532 5525 5518 5513 5508 5494 5492 5498
5388 5394 5400 5407 5412 5417 5425 5430 5434 5436 5440 5448 5462 5471 5467 5473 5479 5483 5505 5522 5528 5541 5542 5543 5549 5555 5562 5556 5546 5554 5549 5536 5529 5532 5530 5529 5528 5534 5531 5529 5526 5522 5516 5511 5502 5493 5491
5373 5378 5384 5391 5399 5405 5410 5418 5425 5427 5430 5434 5454 5446 5452 5459 5488 5498 5501 5513 5517 5533 5541 5544 5546 5547 5546 5548 5545 5544 5542 5527 5524 5527 5509 5510 5528 5530 5537 5529 5524 5520 5519 5517 5508 5504 5513
5358 5364 5369 5374 5381 5391 5396 5403 5412 5416 5417 5421 5438 5451 5465 5452 5469 5495 5505 5515 5519 5520 5529 5537 5537 5541 5544 5524 5536 5538 5541 5527 5519 5509 5513 5517 5517 5523 5523 5521 5519 5519 5518 5520 5520 5516 5512
5341 5346 5353 5360 5366 5374 5381 5386 5392 5402 5405 5414 5420 5443 5470 5483 5474 5481 5496 5504 5517 5524 5522 5531 5533 5537 5541 5533 5533 5531 5539 5529 5526 5520 5516 5515 5513 5514 5480 5516 5515 5515 5521 5522 5521 5520 5518
5322 5328 5335 5343 5351 5359 5367 5375 5380 5389 5396 5407 5424 5439 5448 5468 5482 5480 5493 5501 5512 5522 5521 5527 5528 5531 5531 5534 5535 5538 5537 5534 5530 5521 5517 5509 5502 5499 5506 5514 5512 5508 5522 5525 5524 5522 5520
5298 5306 5315 5324 5334 5343 5352 5362 5370 5374 5386 5401 5412 5422 5434 5450 5478 5486 5492 5495 5503 5514 5512 5515 5522 5523 5526 5525 5519 5516 5515 5516 5516 5517 5518 5509 5505 5500 5497 5503 5488 5534 5537 5532 5524 5520 5517
5276 5282 5291 5303 5313 5324 5335 5345 5354 5360 5366 5378 5399 5415 5429 5435 5465 5478 5484 5487 5492 5500 5502 5506 5507 5515 5514 5509 5494 5471 5472 5474 5475 5501 5506 5506 5504 5480 5484 5500 5524 5533 5525 5521 5515 5514 5514
5264 5266 5271 5280 5292 5304 5315 5326 5338 5348 5356 5364 5383 5403 5419 5418 5448 5465 5473 5480 5487 5489 5491 5494 5492 5499 5501 5499 5489 5485 5495 5507 5479 5491 5504 5501 5500 5492 5474 5488 5509 5533 5531 5522 5516 5505 5518
5262 5263 5263 5265 5272 5284 5296 5308 5321 5333 5342 5347 5365 5380 5399 5410 5433 5452 5467 5473 5479 5483 5482 5479 5480 5483 5493 5488 5476 5493 5516 5522 5505 5498 5482 5489 5478 5474 5479 5486 5518 5534 5523 5514 5495 5511 5516
5263 5260 5261 5259 5262 5267 5279 5290 5302 5317 5325 5332 5349 5366 5394 5404 5420 5433 5453 5463 5470 5479 5477 5476 5465 5470 5475 5474 5485 5493 5507 5514 5521 5523 5504 5496 5476 5476 5478 5481 5490 5532 5514 5504 5515 5506 5500
5265 5260 5260 5256 5254 5258 5265 5275 5287 5301 5313 5318 5332 5351 5373 5384 5404 5421 5434 5448 5456 5471 5476 5471 5484 5482 5484 5483 5493 5501 5500 5512 5516 5514 5517 5505 5514 5510 5506 5511 5522 5524 5516 5509 5505 5500 5492